[[{"header":{"parameterUnit":"m.s-1","parameterCategory":1,"la1":30.2991,"la2":30.254,"lo1":-89.0895,"lo2":-89.0444,"dy":0.0017,"dx":0.0017,"nx":28,"ny":28,"refTime":"2023-10-14T21:00:00:Z","depth":0,"parameterNumber":2,"parameterNumberName":"U-component_of_WINDS"},"data":[0,0,0,0,0,0,0,0,0,0,0,0,0,0,0,0,0,0,0,0,0,0,0,0,0,0,0,0,0,0,0,0,0,0,0,0,0,0,0,0,0,0,0,0,0,0,0,0,0,0,0,0,0,0,0,0,0,0,1.9366,1.9366,0,1.9373,1.9373,1.9373,1.9358,1.9358,1.9357,1.9357,1.9364,1.9365,1.9365,0,0,0,0,0,0,0,0,0,0,0,0,0,1.9339,1.934,1.9366,1.9366,1.9366,1.9373,1.9373,1.9373,1.9358,1.9358,1.9357,1.9357,1.9364,1.9365,1.9366,0,0,0,0,0,0,0,0,0,0,0,0,0,1.9349,1.934,1.9366,1.9359,1.9359,1.9373,1.9373,1.9373,1.9359,1.9358,1.9357,1.9356,1.9364,1.9365,1.9366,1.9386,0,0,1.9369,1.9369,0,0,0,0,0,0,0,0,1.9349,1.935,1.936,1.936,1.9359,1.9364,1.9367,1.9378,1.9359,1.9359,1.9357,1.9356,1.9365,1.9366,1.9369,1.9387,1.9387,1.9369,1.9369,1.937,1.937,0,0,0,0,0,0,0,1.9348,1.935,1.9369,1.936,1.936,1.9356,1.9357,1.9369,1.9366,1.9359,1.9358,1.9359,1.9364,1.9368,1.9369,1.9387,1.9369,1.937,1.937,1.937,1.9424,1.9425,0,0,0,0,0,0,1.9348,1.9349,1.9368,1.9369,1.9352,1.9357,1.9358,1.9363,1.9365,1.9365,1.9359,1.9358,1.9366,1.9367,1.9369,1.9393,1.937,1.9371,1.9371,1.9423,1.9424,1.9425,0,0,0,0,0,0,1.9348,1.935,1.9368,1.9359,1.9361,1.9359,1.9365,1.9364,1.9367,1.9366,1.9365,1.9363,1.9366,1.9367,1.9382,1.9393,1.9371,1.9372,1.9422,1.9423,1.9424,1.9443,0,0,0,0,0,0,1.9347,1.935,1.9357,1.9359,1.9361,1.9381,1.9365,1.9364,1.9369,1.9367,1.9369,1.9369,1.9365,1.9381,1.9383,1.9394,1.9373,1.9421,1.9422,1.9424,1.9441,1.9444,1.9447,0,0,0,0,0,1.9346,1.9362,1.9358,1.936,1.9371,1.9382,1.9383,1.9378,1.937,1.9377,1.9377,1.9369,1.9392,1.9383,1.9385,1.9397,1.942,1.9422,1.9424,1.944,1.9444,1.9447,0,0,0,0,0,0,1.9361,1.9362,1.9357,1.9374,1.9378,1.9379,1.9388,1.9383,1.9389,1.9387,1.9381,1.9382,1.9398,1.9399,1.9388,1.9418,1.9405,1.9407,1.9416,1.942,1.9423,1.9422,1.9373,0,0,0,0,0,1.9366,1.9375,1.9375,1.939,1.9393,1.939,1.9395,1.9391,1.9395,1.9397,1.9397,1.9401,1.941,1.9415,1.9422,1.9442,1.9442,1.9451,1.9454,1.9457,1.9459,1.947,1.9474,1.9431,1.9431,1.9431,0,0,1.9376,1.9378,1.9384,1.9393,1.9396,1.9405,1.9392,1.9402,1.9409,1.9398,1.9412,1.9413,1.9417,1.9435,1.9443,1.9436,1.9471,1.9459,1.9461,1.9462,1.9472,1.9476,1.948,1.9432,1.9432,1.9432,0,0,1.9401,1.9403,1.9416,1.9419,1.9424,1.9423,1.9426,1.9428,1.9429,1.9443,1.9435,1.9444,1.9458,1.9462,1.9465,1.9494,1.9487,1.9497,1.9512,1.9523,1.9527,1.9529,1.9539,1.9543,1.9499,1.9499,1.9499,0,1.9413,1.9427,1.9423,1.9434,1.9439,1.9431,1.9444,1.9447,1.9454,1.9457,1.9451,1.9469,1.9471,1.949,1.9497,1.95,1.9504,1.9495,1.9526,1.9529,1.9532,1.9542,1.9545,1.95,1.95,1.95,1.9499,0,1.9442,1.9452,1.9462,1.947,1.9476,1.9488,1.9486,1.9493,1.949,1.9489,1.9505,1.9508,1.9516,1.952,1.9517,1.9539,1.9535,1.9527,1.9514,1.9537,1.9546,1.955,1.9501,1.9501,1.9501,1.95,0,0,1.9473,1.948,1.9484,1.9488,1.9493,1.9501,1.9514,1.9522,1.9528,1.9534,1.9544,1.9558,1.9551,1.9556,1.9553,1.9562,1.9585,1.9554,1.9554,1.9559,1.961,1.9615,1.9619,1.9581,1.9582,1.9582,1.9609,0,1.9497,1.9519,1.9517,1.9537,1.9547,1.954,1.9551,1.9556,1.9557,1.9566,1.9567,1.9576,1.9567,1.957,1.9579,1.958,1.9595,1.9578,1.9591,1.9591,1.9589,1.9624,1.9629,1.9654,1.9613,1.9614,1.9614,0,1.9527,1.9535,1.9556,1.9562,1.9566,1.9576,1.9584,1.9593,1.9599,1.9599,1.9605,1.9601,1.9614,1.9602,1.962,1.9609,1.9615,1.9616,1.9617,1.9617,1.9603,1.9624,1.9662,1.9665,1.9619,1.9619,1.9619,0,1.9548,1.9563,1.9578,1.9582,1.9589,1.9596,1.9599,1.9604,1.961,1.9618,1.9622,1.9631,1.9636,1.9644,1.9643,1.9634,1.9662,1.9649,1.9662,1.9662,1.9667,1.9666,1.9705,1.9672,1.9672,1.9672,1.9672,0,1.9574,1.9587,1.9588,1.9597,1.9612,1.9611,1.9626,1.9628,1.9634,1.9643,1.9639,1.9648,1.9647,1.9656,1.9656,1.9672,1.9674,1.9674,1.9674,1.9674,1.9674,1.9677,1.9675,1.9673,1.9673,1.9672,1.9672,0,1.9598,1.9599,1.9615,1.9621,1.9623,1.9634,1.9639,1.9648,1.965,1.9662,1.9665,1.9667,1.9679,1.9679,1.9692,1.9692,1.9711,1.9709,1.9709,1.9708,1.972,1.9719,1.9761,1.9767,1.9731,1.9731,1.9731,0,1.9614,1.9624,1.9632,1.9638,1.9642,1.9653,1.9659,1.9659,1.9665,1.9674,1.9682,1.9694,1.9702,1.9721,1.9724,1.9734,1.9732,1.9746,1.9733,1.9734,1.9732,1.9731,1.9732,1.9748,1.9749,1.9749,1.9749,0,1.9643,1.9643,1.9652,1.9663,1.967,1.9678,1.9685,1.9691,1.9692,1.97,1.9712,1.9719,1.9733,1.9744,1.9754,1.9758,1.9754,1.9754,1.9757,1.9757,1.9756,1.9756,1.9715,1.9752,1.9752,1.9752,1.9751,1.9751,1.9663,1.9672,1.9679,1.969,1.9696,1.9703,1.9712,1.9716,1.9726,1.9737,1.9737,1.975,1.9757,1.9771,1.9776,1.9786,1.9781,1.9786,1.9787,1.9788,1.979,1.9756,1.9788,1.9788,1.9788,1.9788,1.9788,0,1.9691,1.9695,1.9706,1.9716,1.9726,1.9722,1.973,1.9738,1.975,1.9757,1.9767,1.9781,1.9793,1.9797,1.9808,1.9816,1.9815,1.9819,1.9818,1.9819,1.9794,1.9789,1.982,1.982,1.982,1.982,1.982,1.982,1.9706,1.9722,1.9723,1.9742,1.9747,1.976,1.9766,1.9773,1.9779,1.9795,1.9805,1.9808,1.9815,1.9827,1.9837,1.9838,1.9843,1.9848,1.9848,1.9824,1.9821,1.9817,1.9813,1.9849,1.9849,1.9873,1.9873,1.9873]},{"header":{"parameterUnit":"m.s-1","parameterCategory":1,"la1":30.2991,"la2":30.254,"lo1":-89.0895,"lo2":-89.0444,"dy":0.0017,"dx":0.0017,"nx":28,"ny":28,"refTime":"2023-10-14T21:00:00:Z","depth":0,"parameterNumber":3,"parameterNumberName":"V-component_of_WINDS"},"data":[0,0,0,0,0,0,0,0,0,0,0,0,0,0,0,0,0,0,0,0,0,0,0,0,0,0,0,0,0,0,0,0,0,0,0,0,0,0,0,0,0,0,0,0,0,0,0,0,0,0,0,0,0,0,0,0,0,0,-8.2295,-8.2297,0,-8.2472,-8.2474,-8.2476,-8.2387,-8.2382,-8.2377,-8.2373,-8.2548,-8.2556,-8.2565,0,0,0,0,0,0,0,0,0,0,0,0,0,-8.1873,-8.1881,-8.2295,-8.2297,-8.2299,-8.2472,-8.2474,-8.2477,-8.2387,-8.2382,-8.2376,-8.2371,-8.2545,-8.2555,-8.2566,0,0,0,0,0,0,0,0,0,0,0,0,0,-8.2054,-8.1884,-8.2294,-8.2276,-8.2276,-8.2471,-8.2474,-8.2477,-8.2389,-8.2382,-8.2375,-8.2368,-8.2541,-8.2554,-8.2568,-8.279,0,0,-8.2609,-8.2615,0,0,0,0,0,0,0,0,-8.2043,-8.2069,-8.2276,-8.2277,-8.2278,-8.24,-8.2389,-8.2582,-8.239,-8.2346,-8.2373,-8.2365,-8.2504,-8.252,-8.2568,-8.2798,-8.2805,-8.261,-8.2618,-8.2624,-8.2628,0,0,0,0,0,0,0,-8.2031,-8.2061,-8.2365,-8.2279,-8.228,-8.2256,-8.2274,-8.2425,-8.2461,-8.2349,-8.2343,-8.2365,-8.2503,-8.2555,-8.2572,-8.2808,-8.261,-8.2622,-8.263,-8.2635,-8.3227,-8.3234,0,0,0,0,0,0,-8.202,-8.2051,-8.2359,-8.237,-8.2141,-8.227,-8.229,-8.2368,-8.2459,-8.2467,-8.2371,-8.2361,-8.2536,-8.2556,-8.2577,-8.2843,-8.2624,-8.2636,-8.2644,-8.3219,-8.3228,-8.3237,0,0,0,0,0,0,-8.2012,-8.2049,-8.2352,-8.2209,-8.2246,-8.2284,-8.2373,-8.2375,-8.2428,-8.2476,-8.2482,-8.2419,-8.2531,-8.2558,-8.2738,-8.2848,-8.2642,-8.2655,-8.321,-8.3222,-8.3233,-8.3376,0,0,0,0,0,0,-8.2,-8.2046,-8.2133,-8.2212,-8.2254,-8.2512,-8.238,-8.2384,-8.2452,-8.244,-8.2522,-8.2529,-8.2528,-8.2718,-8.2751,-8.2862,-8.2665,-8.32,-8.3215,-8.3229,-8.3362,-8.3391,-8.3416,0,0,0,0,0,-8.1985,-8.2165,-8.2137,-8.2175,-8.2363,-8.2519,-8.2542,-8.2539,-8.2461,-8.2547,-8.2578,-8.2527,-8.283,-8.2737,-8.2774,-8.2891,-8.3193,-8.3211,-8.3228,-8.3349,-8.3385,-8.3415,0,0,0,0,0,0,-8.2095,-8.2175,-8.2145,-8.2356,-8.2432,-8.2503,-8.2612,-8.2577,-8.2674,-8.2658,-8.2648,-8.2667,-8.2853,-8.2889,-8.2784,-8.3109,-8.2999,-8.3025,-8.3079,-8.3114,-8.3141,-8.3128,-8.2676,0,0,0,0,0,-8.2144,-8.2266,-8.2328,-8.2508,-8.2547,-8.2574,-8.2641,-8.2632,-8.2708,-8.2739,-8.2783,-8.2858,-8.2969,-8.3043,-8.3149,-8.3366,-8.3382,-8.3464,-8.3491,-8.3513,-8.3535,-8.3652,-8.3689,-8.3293,-8.3293,-8.3293,0,0,-8.2247,-8.2305,-8.2382,-8.2532,-8.2589,-8.2713,-8.2601,-8.2737,-8.2828,-8.2759,-8.2932,-8.2967,-8.3048,-8.3248,-8.3337,-8.3283,-8.3648,-8.3535,-8.3553,-8.3563,-8.3673,-8.3711,-8.3744,-8.3305,-8.3303,-8.3301,0,0,-8.2496,-8.2554,-8.271,-8.277,-8.2858,-8.2874,-8.2912,-8.2989,-8.301,-8.3184,-8.3134,-8.3241,-8.3435,-8.3495,-8.3551,-8.3823,-8.3779,-8.3858,-8.4,-8.4113,-8.4145,-8.4172,-8.4269,-8.4303,-8.3879,-8.388,-8.388,0,-8.2612,-8.2799,-8.2794,-8.2935,-8.3001,-8.2946,-8.3103,-8.316,-8.3278,-8.3324,-8.3263,-8.3504,-8.3555,-8.3767,-8.3834,-8.3881,-8.3922,-8.3848,-8.4141,-8.4169,-8.4194,-8.4286,-8.4322,-8.3889,-8.3888,-8.3887,-8.3886,0,-8.2936,-8.3067,-8.3182,-8.33,-8.3379,-8.3527,-8.3542,-8.3622,-8.3606,-8.3627,-8.3804,-8.3863,-8.398,-8.4029,-8.4014,-8.4239,-8.4203,-8.4142,-8.4031,-8.4241,-8.4327,-8.4362,-8.3902,-8.3898,-8.3896,-8.3893,0,0,-8.3261,-8.3374,-8.3416,-8.3469,-8.3562,-8.3662,-8.3806,-8.3922,-8.3991,-8.4074,-8.4194,-8.4358,-8.4302,-8.4366,-8.4356,-8.4456,-8.4667,-8.4382,-8.4384,-8.4433,-8.4918,-8.4964,-8.5005,-8.4638,-8.4645,-8.465,-8.4911,0,-8.3517,-8.3773,-8.3772,-8.4007,-8.4127,-8.4076,-8.4201,-8.4271,-8.4295,-8.4398,-8.4422,-8.454,-8.4457,-8.4495,-8.4591,-8.4621,-8.4764,-8.4602,-8.4748,-8.4753,-8.4729,-8.505,-8.5099,-8.5342,-8.4944,-8.495,-8.4954,0,-8.3851,-8.3947,-8.4195,-8.4271,-8.432,-8.4434,-8.454,-8.464,-8.4717,-8.4727,-8.4798,-8.4773,-8.4917,-8.4803,-8.5,-8.489,-8.4949,-8.4973,-8.4982,-8.4995,-8.4867,-8.5071,-8.5419,-8.5456,-8.5007,-8.5003,-8.4999,0,-8.4063,-8.4253,-8.4426,-8.4473,-8.4565,-8.4646,-8.4688,-8.4758,-8.4828,-8.492,-8.4964,-8.5071,-8.5129,-8.5211,-8.5214,-8.513,-8.5414,-8.5299,-8.5424,-8.5425,-8.5487,-8.5483,-8.5849,-8.5525,-8.5524,-8.5524,-8.5523,0,-8.4349,-8.4503,-8.4523,-8.4629,-8.4799,-8.4795,-8.4962,-8.4996,-8.506,-8.517,-8.5131,-8.5235,-8.5233,-8.5338,-8.5341,-8.5504,-8.553,-8.5541,-8.554,-8.5545,-8.5544,-8.5583,-8.5567,-8.5533,-8.5531,-8.5529,-8.5528,0,-8.4615,-8.4635,-8.482,-8.4893,-8.4914,-8.5036,-8.5097,-8.5197,-8.5217,-8.5358,-8.539,-8.5421,-8.5543,-8.5554,-8.5695,-8.5696,-8.5893,-8.5874,-8.5868,-8.5865,-8.599,-8.5978,-8.6394,-8.6448,-8.609,-8.6093,-8.6096,0,-8.4796,-8.4914,-8.5,-8.5072,-8.5119,-8.5236,-8.5307,-8.5306,-8.5382,-8.5478,-8.5566,-8.5685,-8.5779,-8.5975,-8.6009,-8.6115,-8.6098,-8.6237,-8.6114,-8.6115,-8.61,-8.6093,-8.6104,-8.626,-8.6264,-8.6268,-8.627,0,-8.5117,-8.5121,-8.5226,-8.5336,-8.5423,-8.5508,-8.5588,-8.5649,-8.5658,-8.5744,-8.5869,-8.5943,-8.6087,-8.6204,-8.6309,-8.6348,-8.6311,-8.6309,-8.6343,-8.635,-8.6342,-8.6347,-8.5933,-8.6299,-8.6296,-8.6294,-8.6293,-8.6291,-8.5346,-8.5447,-8.5524,-8.5643,-8.5703,-8.5779,-8.5876,-8.5909,-8.6014,-8.6133,-8.6126,-8.6264,-8.6336,-8.6473,-8.6521,-8.6627,-8.658,-8.6631,-8.6643,-8.6656,-8.6669,-8.6325,-8.6646,-8.6645,-8.6644,-8.6644,-8.6643,0,-8.5664,-8.571,-8.582,-8.5934,-8.6027,-8.5985,-8.6071,-8.6151,-8.6274,-8.6345,-8.644,-8.6582,-8.6696,-8.6738,-8.6848,-8.6925,-8.691,-8.6954,-8.6948,-8.6958,-8.6704,-8.6663,-8.6964,-8.6964,-8.6964,-8.6963,-8.6963,-8.6963,-8.584,-8.601,-8.6023,-8.6222,-8.6266,-8.6403,-8.6456,-8.6524,-8.6582,-8.6744,-8.6839,-8.6866,-8.6926,-8.704,-8.7141,-8.715,-8.7192,-8.7243,-8.7245,-8.7008,-8.6975,-8.6945,-8.6906,-8.7253,-8.7253,-8.749,-8.7492,-8.7493]}]]